Gulkana, AK

5:40 AM AKDT on October 20, 2017 (GMT -0800)
Gulkana

Weather History for PAGK - February, 2014

Change the Weather History Date:

Wednesday, February 26, 2014

  Actual Average Record
Temperature  
Mean Temperature -4 °F -  
Max Temperature 12 °F 23 °F 41 °F (1975)
Min Temperature -20 °F 0 °F -40 °F (1954)
Degree Days  
Heating Degree Days 69    
Moisture  
Dew Point -10 °F    
Average Humidity 78    
Maximum Humidity 88    
Minimum Humidity 62    
Precipitation  
Precipitation 0.00 in - - ()
Sea Level Pressure  
Sea Level Pressure 30.24 in    
Wind  
Wind Speed 2 mph (NNW)    
Max Wind Speed 6 mph    
Max Gust Speed -    
Visibility 10 miles    
Events      
Averages and records for this station are not official NWS values.
T = Trace of Precipitation, MM = Missing Value Source: NWS Daily Summary

Daily Weather History Graph

Daily Weather History Graph

Search for Another Location

Airport or City:

Trip Planner

Search our weather history database for the weather conditions in past years. The results will help you decide how hot, cold, wet, or windy it might be!

Date:

Astronomy

Feb. 26, 2014 Rise Set
Actual Time 7:53 AM AKST 5:57 PM AKST
Civil Twilight 7:08 AM AKST 6:42 PM AKST
Nautical Twilight 6:16 AM AKST 7:34 PM AKST
Astronomical Twilight 5:24 AM AKST 8:26 PM AKST
Moon 6:26 AM AKST (2/26) 2:48 PM AKST (2/26)
Length of Visible Light 11h 34m
Length of Day
10h 03m
Waning Crescent, 9% of the Moon is Illuminated
Feb 26
Waning Crescent
Feb 28
New
Mar 8
First Quarter
Mar 16
Full
Mar 23
Last Quarter

Hourly Weather History & Observations

Time (AKST) Temp. Windchill Dew Point Humidity Pressure Visibility Wind Dir Wind Speed Gust Speed Precip Events Conditions
12:53 AM -18.0 °F -28.5 °F -23.1 °F 78% 30.36 in 10.0 mi NW 3.5 mph - N/A   Clear
1:53 AM -18.9 °F - -24.0 °F 78% 30.35 in 10.0 mi Calm Calm - N/A   Clear
3:53 AM -18.9 °F -34.0 °F -24.0 °F 78% 30.34 in 10.0 mi NW 5.8 mph - N/A   Clear
4:53 AM -18.0 °F -28.5 °F -24.0 °F 74% 30.33 in 10.0 mi WNW 3.5 mph - N/A   Clear
5:53 AM -18.0 °F -28.5 °F -23.1 °F 78% 30.32 in 10.0 mi North 3.5 mph - N/A   Scattered Clouds
6:53 AM -17.0 °F -27.2 °F -22.0 °F 78% 30.32 in 10.0 mi WNW 3.5 mph - N/A   Clear
7:53 AM -15.0 °F -25.0 °F -20.0 °F 78% 30.32 in 10.0 mi NNW 3.5 mph - N/A   Clear
8:53 AM -11.9 °F - -17.0 °F 78% 30.31 in 10.0 mi Calm Calm - N/A   Partly Cloudy
9:53 AM -8.0 °F -16.9 °F -13.0 °F 79% 30.30 in 10.0 mi North 3.5 mph - N/A   Mostly Cloudy
10:53 AM -2.9 °F - -8.0 °F 79% 30.29 in 10.0 mi Calm Calm - N/A   Clear
11:53 AM -2.0 °F - -6.0 °F 83% 30.27 in 10.0 mi Calm Calm - N/A   Clear
12:53 PM 3.9 °F - -0.9 °F 80% 30.25 in 10.0 mi Calm Calm - N/A   Clear
1:53 PM 7.0 °F - 1.0 °F 77% 30.22 in 10.0 mi Calm Calm - N/A   Clear
2:53 PM 10.0 °F - 3.0 °F 73% 30.19 in 10.0 mi Calm Calm - N/A   Clear
3:53 PM 12.0 °F - 3.9 °F 70% 30.16 in 10.0 mi Calm Calm - N/A   Clear
4:53 PM 10.9 °F - 5.0 °F 77% 30.15 in 10.0 mi Calm Calm - N/A   Clear
5:53 PM 7.0 °F 0.1 °F 3.9 °F 87% 30.15 in 10.0 mi South 3.5 mph - N/A   Clear
6:53 PM 3.9 °F - 1.0 °F 88% 30.15 in 10.0 mi Calm Calm - N/A   Clear
7:53 PM 1.0 °F - -2.0 °F 87% 30.15 in 10.0 mi Calm Calm - N/A   Clear
8:53 PM -0.9 °F - -5.1 °F 83% 30.13 in 10.0 mi Calm Calm - N/A   Clear
9:53 PM -2.9 °F - -6.0 °F 87% 30.13 in 10.0 mi Calm Calm - N/A   Clear
10:53 PM -2.9 °F -11.2 °F -8.0 °F 79% 30.12 in 10.0 mi North 3.5 mph - N/A   Clear
11:53 PM -5.1 °F -13.6 °F -9.0 °F 83% 30.12 in 10.0 mi NNW 3.5 mph - N/A   Clear